[[{"header":{"parameterUnit":"m.s-1","parameterCategory":2,"la1":30.2991,"la2":30.254,"lo1":-89.0895,"lo2":-89.0444,"dy":0.0017,"dx":0.0017,"nx":28,"ny":28,"refTime":"2024-05-11T21:00:00:Z","depth":"0","parameterNumber":2,"parameterNumberName":"U-component_of_CURRENTS"},"data":[0,0,0,0,0,0,0,0,0,0,0,0,0,0,0,0,0,0,0,0,0,0,0,0,0,0,0,0,0,0,0,0,0,0,0,0,0,0,0,0,0,0,0,0,0,0,0,0,0,0,0,0,0,0,0,0,0,0,-0.3706,-0.3707,0,-0.373,-0.3729,-0.3729,-0.366,-0.3658,-0.3656,-0.3655,-0.3581,-0.358,-0.358,0,0,0,0,0,0,0,0,0,0,0,0,0,-0.3576,-0.3579,-0.3706,-0.3707,-0.3707,-0.373,-0.3729,-0.3729,-0.366,-0.3658,-0.3656,-0.3654,-0.3581,-0.358,-0.358,0,0,0,0,0,0,0,0,0,0,0,0,0,-0.3615,-0.3579,-0.3706,-0.3679,-0.3677,-0.373,-0.3729,-0.3729,-0.366,-0.3658,-0.3655,-0.3653,-0.3581,-0.358,-0.358,-0.3628,0,0,-0.3578,-0.3578,0,0,0,0,0,0,0,0,-0.3613,-0.3619,-0.3682,-0.3681,-0.3679,-0.3693,-0.3657,-0.3692,-0.3661,-0.3662,-0.3655,-0.3652,-0.3614,-0.3611,-0.3616,-0.3624,-0.3621,-0.3578,-0.3578,-0.3578,-0.3577,0,0,0,0,0,0,0,-0.361,-0.3618,-0.371,-0.3683,-0.3681,-0.3658,-0.366,-0.3663,-0.3647,-0.3661,-0.3658,-0.3669,-0.3612,-0.3616,-0.3613,-0.362,-0.3578,-0.3578,-0.3577,-0.3577,-0.3638,-0.364,0,0,0,0,0,0,-0.3622,-0.3616,-0.371,-0.3712,-0.3644,-0.3662,-0.3665,-0.3687,-0.3649,-0.3642,-0.3671,-0.3665,-0.3619,-0.3614,-0.361,-0.3643,-0.3578,-0.3577,-0.3577,-0.3636,-0.3639,-0.3641,0,0,0,0,0,0,-0.3619,-0.3631,-0.3709,-0.3667,-0.3675,-0.3668,-0.3693,-0.3689,-0.3684,-0.3658,-0.3648,-0.3669,-0.3616,-0.3611,-0.3609,-0.3639,-0.3577,-0.3576,-0.3634,-0.3637,-0.364,-0.3721,0,0,0,0,0,0,-0.3616,-0.363,-0.3644,-0.3668,-0.3679,-0.3742,-0.3696,-0.3692,-0.3698,-0.3691,-0.3654,-0.3645,-0.3614,-0.361,-0.3609,-0.3638,-0.3576,-0.3632,-0.3636,-0.3639,-0.3716,-0.3726,-0.3735,0,0,0,0,0,-0.3611,-0.364,-0.3645,-0.3656,-0.3701,-0.3744,-0.3747,-0.3729,-0.3701,-0.3711,-0.3681,-0.3645,-0.3632,-0.3612,-0.3609,-0.3638,-0.363,-0.3634,-0.3639,-0.3711,-0.3724,-0.3735,0,0,0,0,0,0,-0.3581,-0.3637,-0.3642,-0.3684,-0.3715,-0.3734,-0.3743,-0.3737,-0.3726,-0.371,-0.3669,-0.366,-0.3672,-0.3651,-0.3629,-0.3669,-0.3627,-0.3631,-0.3683,-0.3695,-0.3705,-0.3702,-0.3575,0,0,0,0,0,-0.359,-0.3627,-0.3673,-0.3704,-0.3724,-0.3737,-0.3749,-0.3746,-0.3746,-0.3737,-0.3714,-0.3695,-0.3696,-0.3688,-0.3684,-0.3707,-0.3669,-0.3726,-0.3736,-0.3744,-0.3742,-0.3726,-0.3733,-0.3655,-0.3655,-0.3655,0,0,-0.3583,-0.3622,-0.3639,-0.3701,-0.3719,-0.3764,-0.3735,-0.3765,-0.3792,-0.3734,-0.3747,-0.373,-0.3711,-0.3732,-0.3737,-0.3712,-0.3747,-0.375,-0.3757,-0.375,-0.3731,-0.3738,-0.3745,-0.3658,-0.3658,-0.3657,0,0,-0.36,-0.3631,-0.367,-0.371,-0.3759,-0.3778,-0.3791,-0.382,-0.3818,-0.3846,-0.3809,-0.3807,-0.381,-0.3799,-0.3796,-0.3862,-0.3802,-0.3866,-0.3908,-0.3893,-0.3898,-0.3903,-0.3857,-0.3857,-0.3867,-0.3868,-0.3868,0,-0.3586,-0.3645,-0.3685,-0.374,-0.3766,-0.3789,-0.383,-0.3857,-0.3877,-0.3878,-0.3857,-0.3862,-0.3843,-0.3867,-0.3886,-0.3882,-0.3851,-0.3862,-0.3904,-0.3907,-0.391,-0.3862,-0.3861,-0.3872,-0.3872,-0.3871,-0.3871,0,-0.3639,-0.3684,-0.3711,-0.3789,-0.383,-0.3865,-0.392,-0.3946,-0.3947,-0.396,-0.3979,-0.3962,-0.3952,-0.3964,-0.3943,-0.3969,-0.3931,-0.3919,-0.3869,-0.3923,-0.3869,-0.3866,-0.3878,-0.3877,-0.3875,-0.3874,0,0,-0.3584,-0.3719,-0.372,-0.3757,-0.385,-0.3881,-0.3952,-0.4001,-0.4024,-0.4048,-0.4061,-0.408,-0.4054,-0.4049,-0.4029,-0.4024,-0.4019,-0.3984,-0.3981,-0.3929,-0.396,-0.3849,-0.3834,-0.4012,-0.4012,-0.4013,-0.391,0,-0.3593,-0.3689,-0.3758,-0.3827,-0.3872,-0.3932,-0.399,-0.4044,-0.4074,-0.41,-0.4101,-0.4107,-0.4095,-0.408,-0.4082,-0.4036,-0.4016,-0.4046,-0.3924,-0.392,-0.3807,-0.383,-0.3681,-0.3571,-0.3907,-0.3906,-0.3906,0,-0.3593,-0.3663,-0.3733,-0.3835,-0.3857,-0.3905,-0.3974,-0.4031,-0.4099,-0.4116,-0.4139,-0.4142,-0.4147,-0.4121,-0.4076,-0.4093,-0.4031,-0.3995,-0.399,-0.3853,-0.3803,-0.3574,-0.3552,-0.3518,-0.3901,-0.3901,-0.3901,0,-0.3497,-0.3624,-0.3667,-0.3706,-0.384,-0.3868,-0.3926,-0.4014,-0.4053,-0.4111,-0.4129,-0.4152,-0.4129,-0.4102,-0.4041,-0.4053,-0.3971,-0.397,-0.381,-0.38,-0.3631,-0.3606,-0.355,-0.3923,-0.3923,-0.3924,-0.3924,0,-0.3453,-0.3482,-0.3622,-0.3645,-0.3687,-0.3803,-0.3844,-0.391,-0.4001,-0.4016,-0.4107,-0.4113,-0.4122,-0.4091,-0.4043,-0.3908,-0.3964,-0.3808,-0.3769,-0.3655,-0.3634,-0.3561,-0.3595,-0.392,-0.3921,-0.3921,-0.3922,0,-0.3321,-0.342,-0.3473,-0.3606,-0.3639,-0.3658,-0.3783,-0.3807,-0.3921,-0.3944,-0.3958,-0.4059,-0.401,-0.4005,-0.3932,-0.3867,-0.3701,-0.3711,-0.3562,-0.3508,-0.332,-0.3364,-0.3253,-0.3158,-0.3514,-0.3511,-0.3508,0,-0.3258,-0.3274,-0.3399,-0.3407,-0.3456,-0.3521,-0.3549,-0.3714,-0.3743,-0.3887,-0.3865,-0.3897,-0.3855,-0.3751,-0.3653,-0.3532,-0.3544,-0.3327,-0.3325,-0.3279,-0.3301,-0.3336,-0.3269,-0.313,-0.3124,-0.312,-0.3116,0,-0.3116,-0.3157,-0.3196,-0.3231,-0.3258,-0.3317,-0.3381,-0.3421,-0.3578,-0.3624,-0.3664,-0.3669,-0.3593,-0.3432,-0.331,-0.3227,-0.3243,-0.3224,-0.322,-0.3027,-0.3019,-0.2917,-0.3226,-0.3075,-0.3079,-0.3082,-0.3084,-0.3086,-0.2968,-0.2957,-0.3001,-0.3016,-0.3055,-0.3086,-0.306,-0.3152,-0.3202,-0.3227,-0.3361,-0.3311,-0.3258,-0.3075,-0.2988,-0.2806,-0.2908,-0.2733,-0.2796,-0.2841,-0.2734,-0.2938,-0.2725,-0.2727,-0.2729,-0.273,-0.2732,0,-0.2773,-0.2778,-0.2779,-0.28,-0.2763,-0.2862,-0.2901,-0.2844,-0.2814,-0.291,-0.29,-0.2908,-0.2742,-0.2716,-0.2562,-0.2435,-0.2382,-0.2391,-0.2423,-0.2376,-0.2568,-0.2535,-0.2217,-0.2217,-0.2218,-0.2218,-0.2218,-0.2218,-0.2661,-0.2596,-0.2615,-0.2502,-0.2501,-0.2391,-0.2369,-0.2321,-0.2349,-0.2333,-0.2384,-0.2496,-0.2515,-0.2626,-0.2422,-0.2288,-0.2242,-0.2162,-0.221,-0.2383,-0.2421,-0.2457,-0.2432,-0.2099,-0.2099,-0.1916,-0.1915,-0.1914]},{"header":{"parameterUnit":"m.s-1","parameterCategory":2,"la1":30.2991,"la2":30.254,"lo1":-89.0895,"lo2":-89.0444,"dy":0.0017,"dx":0.0017,"nx":28,"ny":28,"refTime":"2024-05-11T21:00:00:Z","depth":"0","parameterNumber":3,"parameterNumberName":"V-component_of_CURRENTS"},"data":[0,0,0,0,0,0,0,0,0,0,0,0,0,0,0,0,0,0,0,0,0,0,0,0,0,0,0,0,0,0,0,0,0,0,0,0,0,0,0,0,0,0,0,0,0,0,0,0,0,0,0,0,0,0,0,0,0,0,-0.0471,-0.047,0,-0.0357,-0.0355,-0.0354,-0.0276,-0.0276,-0.0275,-0.0275,-0.0109,-0.0105,-0.0101,0,0,0,0,0,0,0,0,0,0,0,0,0,-0.0556,-0.0555,-0.0471,-0.047,-0.0469,-0.0357,-0.0355,-0.0354,-0.0276,-0.0275,-0.0275,-0.0274,-0.011,-0.0105,-0.01,0,0,0,0,0,0,0,0,0,0,0,0,0,-0.0487,-0.0555,-0.0472,-0.0417,-0.0411,-0.0357,-0.0355,-0.0353,-0.0276,-0.0275,-0.0275,-0.0274,-0.0111,-0.0106,-0.01,-0.0077,0,0,-0.0081,-0.0079,0,0,0,0,0,0,0,0,-0.0491,-0.0484,-0.0427,-0.0421,-0.0414,-0.0331,-0.0324,-0.0258,-0.0276,-0.0326,-0.0275,-0.0274,-0.0179,-0.0168,-0.0147,-0.0069,-0.0062,-0.0081,-0.0077,-0.0075,-0.0073,0,0,0,0,0,0,0,-0.0496,-0.0488,-0.0425,-0.0425,-0.0418,-0.0376,-0.0366,-0.0311,-0.0256,-0.0322,-0.0316,-0.0305,-0.0175,-0.0153,-0.0142,-0.0059,-0.0081,-0.0076,-0.0072,-0.007,0.0061,0.0061,0,0,0,0,0,0,-0.0517,-0.0493,-0.0428,-0.0421,-0.0453,-0.0375,-0.0364,-0.0357,-0.0258,-0.0243,-0.0306,-0.0302,-0.0163,-0.0149,-0.0136,-0.0103,-0.0075,-0.0069,-0.0066,0.0062,0.0061,0.0061,0,0,0,0,0,0,-0.0519,-0.0512,-0.0433,-0.0455,-0.0442,-0.0375,-0.0368,-0.0356,-0.0333,-0.0247,-0.023,-0.0296,-0.0162,-0.0144,-0.0088,-0.0096,-0.0066,-0.0061,0.0062,0.0062,0.0061,-0.0036,0,0,0,0,0,0,-0.0522,-0.0514,-0.0521,-0.0457,-0.0442,-0.0413,-0.0368,-0.0354,-0.0327,-0.0321,-0.0233,-0.0217,-0.016,-0.0097,-0.0082,-0.0087,-0.0056,0.0062,0.0062,0.0061,-0.0033,-0.004,-0.0045,0,0,0,0,0,-0.0526,-0.0544,-0.0522,-0.0514,-0.0452,-0.0413,-0.0402,-0.035,-0.0328,-0.0326,-0.026,-0.0219,-0.0087,-0.0092,-0.0074,-0.0078,0.0062,0.0062,0.0061,-0.003,-0.0038,-0.0045,0,0,0,0,0,0,-0.0585,-0.0536,-0.051,-0.0512,-0.047,-0.0401,-0.0398,-0.0359,-0.0306,-0.03,-0.0216,-0.0196,-0.0153,-0.01,-0.0107,-0.004,-0.0007,-0.0004,-0.0083,-0.009,-0.0096,-0.0114,-0.0051,0,0,0,0,0,-0.0602,-0.0603,-0.0542,-0.0545,-0.0529,-0.0464,-0.0444,-0.0407,-0.0351,-0.0327,-0.0263,-0.0196,-0.014,-0.0104,-0.005,-0.0009,0.0054,0.0,-0.0006,-0.0012,-0.0014,0.0067,0.0068,0.0061,0.0061,0.0061,0,0,-0.0627,-0.0599,-0.06,-0.0558,-0.0522,-0.0511,-0.045,-0.0428,-0.0412,-0.0317,-0.0281,-0.0219,-0.0136,-0.0093,-0.0069,-0.0048,0.0025,-0.0013,-0.0018,-0.0016,0.0067,0.0068,0.0069,0.006,0.006,0.006,0,0,-0.0685,-0.0653,-0.0675,-0.0645,-0.06,-0.0553,-0.0552,-0.0485,-0.0451,-0.0406,-0.0337,-0.0276,-0.0193,-0.0131,-0.0089,-0.0095,-0.0017,-0.0083,-0.0121,-0.0043,-0.0042,-0.004,0.0044,0.0055,-0.008,-0.008,-0.008,0,-0.0719,-0.0732,-0.0675,-0.0685,-0.0667,-0.058,-0.0592,-0.0544,-0.0466,-0.0437,-0.041,-0.0276,-0.0209,-0.0141,-0.0144,-0.0109,-0.0052,-0.0103,-0.0052,-0.0049,-0.0045,0.0041,0.0053,-0.0085,-0.0084,-0.0084,-0.0084,0,-0.0788,-0.0795,-0.0806,-0.0786,-0.0756,-0.0753,-0.0677,-0.0643,-0.0587,-0.0528,-0.0455,-0.0355,-0.0272,-0.0244,-0.0194,-0.0138,-0.0101,-0.0077,-0.0038,-0.005,0.0041,0.0056,-0.0092,-0.009,-0.0089,-0.0087,0,0,-0.087,-0.0861,-0.0863,-0.0873,-0.0809,-0.0795,-0.0761,-0.0702,-0.0678,-0.0589,-0.0544,-0.0441,-0.0376,-0.0324,-0.0247,-0.0175,-0.0098,-0.0124,-0.0118,-0.005,0.0081,0.0151,0.0174,-0.0069,-0.0067,-0.0066,0.0136,0,-0.0942,-0.0994,-0.0954,-0.0984,-0.0999,-0.0909,-0.0882,-0.0811,-0.0733,-0.0666,-0.0543,-0.0474,-0.0408,-0.0367,-0.0285,-0.0143,-0.0065,-0.0155,0.0092,0.01,0.0155,0.0192,0.0239,0.0427,0.0151,0.0154,0.0155,0,-0.1017,-0.1041,-0.1095,-0.1082,-0.1078,-0.1071,-0.1003,-0.097,-0.0844,-0.0782,-0.068,-0.0574,-0.0442,-0.0393,-0.0155,-0.0216,-0.0082,0.0029,0.004,0.0149,0.0196,0.0397,0.0465,0.0678,0.0179,0.0177,0.0175,0,-0.1103,-0.1132,-0.1181,-0.1179,-0.115,-0.1145,-0.1112,-0.1007,-0.0975,-0.085,-0.0797,-0.0631,-0.0535,-0.0352,-0.0111,-0.0133,0.0159,0.0162,0.0355,0.0362,0.0475,0.0489,0.0773,0.0322,0.0322,0.0321,0.0321,0,-0.1188,-0.1225,-0.1231,-0.126,-0.1303,-0.1236,-0.124,-0.1181,-0.1081,-0.1038,-0.0867,-0.0775,-0.0523,-0.0317,-0.0116,0.0183,0.0164,0.0365,0.0424,0.0443,0.0451,0.07,0.0769,0.0329,0.0327,0.0326,0.0325,0,-0.127,-0.1277,-0.1343,-0.1349,-0.1351,-0.138,-0.1341,-0.133,-0.1222,-0.1155,-0.1115,-0.0871,-0.059,-0.0312,0.0011,0.0183,0.0601,0.0557,0.0568,0.0624,0.0976,0.1035,0.1369,0.1509,0.0798,0.0801,0.0803,0,-0.1316,-0.1362,-0.1424,-0.1467,-0.1477,-0.1499,-0.1502,-0.1419,-0.1392,-0.12,-0.1164,-0.088,-0.0649,-0.0127,0.0232,0.062,0.0765,0.0866,0.083,0.1027,0.1138,0.1173,0.1268,0.0951,0.0954,0.0957,0.0959,0,-0.1402,-0.1428,-0.1485,-0.1576,-0.1616,-0.1656,-0.1646,-0.1641,-0.152,-0.1417,-0.1209,-0.1003,-0.0476,0.0012,0.0509,0.0729,0.1032,0.0936,0.1151,0.1296,0.1346,0.1497,0.0785,0.0985,0.0983,0.0981,0.0979,0.0978,-0.1456,-0.1525,-0.1596,-0.168,-0.1739,-0.1779,-0.1789,-0.1739,-0.1671,-0.1472,-0.1257,-0.0894,-0.0192,0.0542,0.0818,0.1363,0.1283,0.1491,0.1554,0.1577,0.1698,0.1042,0.1292,0.1292,0.1291,0.129,0.129,0,-0.1509,-0.1583,-0.1679,-0.1781,-0.1854,-0.1851,-0.1855,-0.1811,-0.1716,-0.147,-0.1216,-0.0437,0.0261,0.0894,0.168,0.1967,0.2024,0.2082,0.2151,0.2224,0.1671,0.1663,0.1993,0.1993,0.1993,0.1993,0.1992,0.1992,-0.1538,-0.1643,-0.17,-0.1844,-0.1906,-0.1944,-0.1937,-0.1843,-0.166,-0.1233,-0.08,-0.0429,0.0486,0.1759,0.2476,0.2527,0.2776,0.2726,0.287,0.248,0.2429,0.238,0.2394,0.2871,0.2872,0.341,0.3416,0.342]}],[{"header":{"parameterUnit":"m.s-1","parameterCategory":2,"la1":30.2991,"la2":30.254,"lo1":-89.0895,"lo2":-89.0444,"dy":0.0017,"dx":0.0017,"nx":28,"ny":28,"refTime":"2024-05-11T21:00:00:Z","depth":"2","parameterNumber":2,"parameterNumberName":"U-component_of_CURRENTS"},"data":[0,0,0,0,0,0,0,0,0,0,0,0,0,0,0,0,0,0,0,0,0,0,0,0,0,0,0,0,0,0,0,0,0,0,0,0,0,0,0,0,0,0,0,0,0,0,0,0,0,0,0,0,0,0,0,0,0,0,-0.3261,-0.3262,0,-0.3309,-0.3309,-0.3309,-0.3274,-0.3272,-0.3271,-0.327,-0.3235,-0.3235,-0.3235,0,0,0,0,0,0,0,0,0,0,0,0,0,-0.3138,-0.314,-0.3261,-0.3262,-0.3263,-0.3309,-0.3309,-0.3309,-0.3274,-0.3272,-0.3271,-0.327,-0.3235,-0.3235,-0.3236,0,0,0,0,0,0,0,0,0,0,0,0,0,-0.3186,-0.3141,-0.3261,-0.3254,-0.3254,-0.3309,-0.3309,-0.331,-0.3274,-0.3272,-0.3271,-0.3269,-0.3235,-0.3235,-0.3236,-0.3273,0,0,-0.3236,-0.3236,0,0,0,0,0,0,0,0,-0.3183,-0.319,-0.3254,-0.3254,-0.3255,-0.3287,-0.3253,-0.3295,-0.3275,-0.3262,-0.327,-0.3268,-0.3249,-0.3248,-0.3256,-0.3271,-0.327,-0.3236,-0.3237,-0.3237,-0.3237,0,0,0,0,0,0,0,-0.318,-0.3188,-0.3276,-0.3255,-0.3256,-0.3248,-0.3253,-0.3261,-0.326,-0.3263,-0.3262,-0.3274,-0.3247,-0.3256,-0.3255,-0.3269,-0.3236,-0.3237,-0.3237,-0.3237,-0.3312,-0.3313,0,0,0,0,0,0,-0.3185,-0.3185,-0.3274,-0.3278,-0.3218,-0.3252,-0.3257,-0.3275,-0.3262,-0.326,-0.3276,-0.3272,-0.3257,-0.3255,-0.3254,-0.3298,-0.3237,-0.3237,-0.3237,-0.331,-0.3312,-0.3314,0,0,0,0,0,0,-0.3182,-0.3192,-0.3273,-0.3235,-0.3245,-0.3257,-0.3277,-0.3277,-0.3286,-0.3273,-0.3268,-0.3284,-0.3255,-0.3253,-0.3265,-0.3296,-0.3237,-0.3237,-0.3308,-0.331,-0.3313,-0.3386,0,0,0,0,0,0,-0.3178,-0.3191,-0.3204,-0.3236,-0.3247,-0.331,-0.3279,-0.3279,-0.3298,-0.3294,-0.3279,-0.3274,-0.3254,-0.3265,-0.3265,-0.3295,-0.3238,-0.3305,-0.3309,-0.3312,-0.3381,-0.3391,-0.3399,0,0,0,0,0,-0.3174,-0.3197,-0.3205,-0.3216,-0.3266,-0.3312,-0.3317,-0.3315,-0.33,-0.3314,-0.3302,-0.3275,-0.3287,-0.3267,-0.3267,-0.3297,-0.3304,-0.3308,-0.3312,-0.3377,-0.3389,-0.3399,0,0,0,0,0,0,-0.3145,-0.3197,-0.3206,-0.3242,-0.3278,-0.3307,-0.3321,-0.3326,-0.333,-0.3323,-0.3298,-0.3293,-0.3317,-0.3302,-0.3281,-0.333,-0.3292,-0.3296,-0.3341,-0.3352,-0.3361,-0.3354,-0.3238,0,0,0,0,0,-0.3151,-0.3181,-0.3229,-0.3258,-0.3279,-0.3304,-0.3321,-0.3329,-0.3342,-0.3342,-0.3334,-0.3329,-0.3338,-0.3338,-0.3342,-0.3371,-0.3338,-0.3392,-0.3401,-0.3408,-0.3404,-0.3392,-0.3399,-0.3327,-0.3327,-0.3327,0,0,-0.3146,-0.3181,-0.3196,-0.3255,-0.3279,-0.3324,-0.3308,-0.3346,-0.3378,-0.3339,-0.3367,-0.3361,-0.3354,-0.3383,-0.3392,-0.3371,-0.3412,-0.3413,-0.342,-0.3411,-0.3397,-0.3404,-0.341,-0.333,-0.333,-0.3329,0,0,-0.316,-0.3188,-0.3221,-0.3261,-0.3316,-0.3339,-0.3355,-0.3395,-0.3404,-0.3443,-0.3421,-0.343,-0.3448,-0.3445,-0.3447,-0.351,-0.3461,-0.3518,-0.3555,-0.3545,-0.355,-0.3554,-0.3518,-0.3518,-0.352,-0.3521,-0.3521,0,-0.315,-0.32,-0.3237,-0.3287,-0.3318,-0.335,-0.3393,-0.3424,-0.3461,-0.3471,-0.3459,-0.3487,-0.3478,-0.3508,-0.3528,-0.3528,-0.3504,-0.3514,-0.3554,-0.3558,-0.3561,-0.3523,-0.3522,-0.3525,-0.3524,-0.3524,-0.3523,0,-0.3194,-0.3236,-0.3261,-0.3334,-0.3378,-0.3417,-0.3475,-0.3508,-0.3524,-0.3545,-0.3578,-0.3574,-0.358,-0.3593,-0.358,-0.3608,-0.3577,-0.3567,-0.3522,-0.3572,-0.3529,-0.3527,-0.353,-0.3529,-0.3528,-0.3527,0,0,-0.3146,-0.3266,-0.3269,-0.3307,-0.34,-0.3434,-0.3506,-0.3563,-0.3592,-0.3629,-0.3655,-0.3683,-0.3669,-0.367,-0.3659,-0.3656,-0.3657,-0.3625,-0.3622,-0.3579,-0.3615,-0.3505,-0.3492,-0.3654,-0.3654,-0.3654,-0.3574,0,-0.3156,-0.3243,-0.3306,-0.3378,-0.3421,-0.3486,-0.3545,-0.3606,-0.3646,-0.3683,-0.3694,-0.3714,-0.3704,-0.3702,-0.3705,-0.3671,-0.3656,-0.3678,-0.3581,-0.3577,-0.3466,-0.3488,-0.3247,-0.3148,-0.3572,-0.3572,-0.3571,0,-0.3158,-0.322,-0.329,-0.3391,-0.3414,-0.3466,-0.3546,-0.3604,-0.3679,-0.3707,-0.3741,-0.3751,-0.3764,-0.3742,-0.3709,-0.3724,-0.3673,-0.3643,-0.3638,-0.3506,-0.3464,-0.3169,-0.3128,-0.3567,-0.3567,-0.3568,-0.3568,0,-0.3076,-0.3194,-0.324,-0.3278,-0.3407,-0.3443,-0.3502,-0.3596,-0.364,-0.3711,-0.374,-0.3769,-0.3762,-0.3737,-0.3687,-0.3697,-0.3631,-0.363,-0.3481,-0.3472,-0.323,-0.3199,-0.359,-0.3591,-0.3591,-0.3591,-0.3591,0,-0.304,-0.3073,-0.3204,-0.3229,-0.3278,-0.339,-0.3442,-0.3512,-0.3609,-0.3633,-0.3727,-0.3741,-0.376,-0.3736,-0.3691,-0.3571,-0.3628,-0.3478,-0.3445,-0.3249,-0.3222,-0.3558,-0.3556,-0.3588,-0.3589,-0.3589,-0.359,0,-0.2928,-0.3018,-0.3073,-0.3203,-0.3238,-0.3266,-0.3395,-0.3422,-0.3544,-0.3579,-0.3599,-0.3705,-0.3667,-0.3667,-0.3607,-0.3543,-0.3461,-0.3399,-0.3158,-0.3098,-0.3308,-0.331,-0.3226,-0.3221,-0.3217,-0.3214,-0.3211,0,-0.2875,-0.2893,-0.3015,-0.3027,-0.3078,-0.315,-0.3182,-0.3345,-0.3379,-0.353,-0.3515,-0.3559,-0.3519,-0.343,-0.3333,-0.322,-0.3333,-0.2937,-0.2914,-0.3294,-0.3271,-0.328,-0.3287,-0.2619,-0.2612,-0.2606,-0.2601,0,-0.2753,-0.2795,-0.2833,-0.2873,-0.2906,-0.2964,-0.3033,-0.3073,-0.3229,-0.3279,-0.3319,-0.3321,-0.326,-0.3053,-0.2945,-0.2854,-0.2946,-0.2811,-0.3252,-0.2761,-0.2719,-0.2699,-0.2726,-0.2548,-0.2553,-0.2557,-0.256,-0.2562,-0.2626,-0.2618,-0.2662,-0.2682,-0.2724,-0.2751,-0.2727,-0.2814,-0.2859,-0.2883,-0.3015,-0.2928,-0.2919,-0.2631,-0.2491,-0.2392,-0.2592,-0.2481,-0.2501,-0.2527,-0.2483,-0.2438,-0.2204,-0.2207,-0.221,-0.2212,-0.2214,0,-0.2456,-0.2461,-0.2464,-0.2486,-0.2452,-0.255,-0.2583,-0.2523,-0.2485,-0.2553,-0.2543,-0.2304,-0.218,-0.218,-0.1942,-0.1893,-0.1885,-0.1816,-0.1812,-0.1866,-0.1913,-0.184,-0.1389,-0.1387,-0.1384,-0.1382,0,0,-0.2357,-0.2298,-0.2311,-0.2208,-0.2211,-0.211,-0.2085,-0.2023,-0.2025,-0.1942,-0.1902,-0.2067,-0.2126,-0.1766,-0.1678,-0.1497,-0.1666,-0.142,-0.2083,-0.2133,-0.2178,-0.2297,-0.2245,0,0,0,0,0]},{"header":{"parameterUnit":"m.s-1","parameterCategory":2,"la1":30.2991,"la2":30.254,"lo1":-89.0895,"lo2":-89.0444,"dy":0.0017,"dx":0.0017,"nx":28,"ny":28,"refTime":"2024-05-11T21:00:00:Z","depth":"2","parameterNumber":3,"parameterNumberName":"V-component_of_CURRENTS"},"data":[0,0,0,0,0,0,0,0,0,0,0,0,0,0,0,0,0,0,0,0,0,0,0,0,0,0,0,0,0,0,0,0,0,0,0,0,0,0,0,0,0,0,0,0,0,0,0,0,0,0,0,0,0,0,0,0,0,0,-0.0323,-0.0322,0,-0.0229,-0.0228,-0.0226,-0.0159,-0.0159,-0.0158,-0.0158,-0.0012,-0.0009,-0.0006,0,0,0,0,0,0,0,0,0,0,0,0,0,-0.0387,-0.0387,-0.0323,-0.0322,-0.0321,-0.0229,-0.0227,-0.0226,-0.0159,-0.0159,-0.0158,-0.0158,-0.0014,-0.0009,-0.0005,0,0,0,0,0,0,0,0,0,0,0,0,0,-0.0332,-0.0386,-0.0323,-0.0277,-0.0272,-0.0229,-0.0227,-0.0226,-0.0159,-0.0159,-0.0158,-0.0157,-0.0015,-0.001,-0.0005,0.0014,0,0,0.0011,0.0013,0,0,0,0,0,0,0,0,-0.0335,-0.033,-0.0285,-0.028,-0.0274,-0.0206,-0.0197,-0.0143,-0.0159,-0.0201,-0.0158,-0.0157,-0.0074,-0.0064,-0.0046,0.0021,0.0027,0.0012,0.0015,0.0017,0.0018,0,0,0,0,0,0,0,-0.0339,-0.0333,-0.0284,-0.0284,-0.0277,-0.0242,-0.0233,-0.0186,-0.014,-0.0197,-0.0192,-0.0184,-0.007,-0.0052,-0.0042,0.0029,0.0011,0.0016,0.0019,0.0021,0.0134,0.0134,0,0,0,0,0,0,-0.0357,-0.0337,-0.0287,-0.0282,-0.0305,-0.0241,-0.0232,-0.0228,-0.0142,-0.0129,-0.0185,-0.0181,-0.0061,-0.0049,-0.0037,-0.0004,0.0017,0.0022,0.0025,0.0134,0.0134,0.0134,0,0,0,0,0,0,-0.0359,-0.0353,-0.0291,-0.0308,-0.0297,-0.0241,-0.0237,-0.0226,-0.0207,-0.0133,-0.0119,-0.0177,-0.006,-0.0044,0.0005,0.0002,0.0024,0.0029,0.0134,0.0134,0.0134,0.0059,0,0,0,0,0,0,-0.0361,-0.0355,-0.0362,-0.0309,-0.0297,-0.0276,-0.0237,-0.0225,-0.0204,-0.0198,-0.0122,-0.0107,-0.0058,-0.0003,0.001,0.001,0.0033,0.0135,0.0134,0.0134,0.0062,0.0056,0.0052,0,0,0,0,0,-0.0364,-0.0381,-0.0363,-0.0357,-0.0307,-0.0276,-0.0267,-0.0224,-0.0204,-0.0203,-0.0146,-0.011,0.0005,0.0001,0.0017,0.0018,0.0135,0.0134,0.0134,0.0064,0.0057,0.0052,0,0,0,0,0,0,-0.0414,-0.0375,-0.0353,-0.0358,-0.0323,-0.0266,-0.0265,-0.0231,-0.0186,-0.0181,-0.0108,-0.009,-0.0052,-0.0006,-0.0013,0.0049,0.0075,0.0077,0.0016,0.001,0.0005,-0.0008,0.0037,0,0,0,0,0,-0.043,-0.0432,-0.0382,-0.0387,-0.0375,-0.032,-0.0304,-0.0273,-0.0225,-0.0205,-0.0149,-0.0091,-0.0041,-0.0008,0.0037,0.0076,0.0131,0.0086,0.0081,0.0077,0.0076,0.0155,0.0157,0.0133,0.0133,0.0133,0,0,-0.0452,-0.043,-0.0432,-0.0398,-0.0369,-0.036,-0.0309,-0.0292,-0.0276,-0.0196,-0.0164,-0.0111,-0.0038,0.0002,0.0024,0.0042,0.0112,0.0076,0.0072,0.0074,0.0155,0.0158,0.016,0.0133,0.0133,0.0133,0,0,-0.0504,-0.0478,-0.0499,-0.0474,-0.0438,-0.0398,-0.0396,-0.0342,-0.0311,-0.0272,-0.0213,-0.0157,-0.0086,-0.0026,0.0012,0.0009,0.0076,0.0016,-0.0008,0.0068,0.0071,0.0074,0.0145,0.0155,0.0023,0.0023,0.0023,0,-0.0534,-0.0548,-0.05,-0.0509,-0.0495,-0.042,-0.0432,-0.0389,-0.0323,-0.0296,-0.0275,-0.0156,-0.0096,-0.0029,-0.003,-0.0001,0.0048,0.0007,0.0062,0.0066,0.0071,0.0143,0.0155,0.002,0.002,0.002,0.0021,0,-0.0596,-0.0604,-0.0614,-0.0597,-0.0571,-0.0571,-0.0503,-0.0474,-0.0425,-0.0372,-0.0305,-0.0216,-0.0142,-0.0115,-0.007,-0.0011,0.0015,0.0038,0.0074,0.0068,0.0145,0.0159,0.0014,0.0016,0.0017,0.0018,0,0,-0.0671,-0.0663,-0.0665,-0.0675,-0.0619,-0.0609,-0.0575,-0.0521,-0.05,-0.0419,-0.0377,-0.0279,-0.0222,-0.0175,-0.0106,-0.0032,0.0044,0.0009,0.0015,0.0074,0.021,0.0255,0.0275,0.0073,0.0075,0.0077,0.0249,0,-0.0736,-0.0782,-0.0746,-0.0774,-0.0789,-0.0709,-0.0682,-0.0617,-0.0548,-0.0487,-0.0369,-0.0309,-0.0246,-0.0211,-0.0127,-0.0001,0.0077,-0.0005,0.0211,0.0218,0.0255,0.0292,0.0247,0.0399,0.0263,0.0266,0.0268,0,-0.0804,-0.0826,-0.0875,-0.0865,-0.0862,-0.0857,-0.0797,-0.0766,-0.0648,-0.0593,-0.0495,-0.04,-0.0272,-0.0226,-0.0002,-0.006,0.0063,0.0166,0.0175,0.0255,0.029,0.0385,0.0431,0.0292,0.029,0.0288,0.0286,0,-0.0884,-0.091,-0.0956,-0.0954,-0.0929,-0.0926,-0.0898,-0.0802,-0.0774,-0.0658,-0.0614,-0.0452,-0.0364,-0.019,0.0029,0.0013,0.0279,0.0287,0.0449,0.0453,0.0478,0.0482,0.0443,0.0443,0.0442,0.0442,0.0441,0,-0.0962,-0.0997,-0.1004,-0.1032,-0.1076,-0.1014,-0.1023,-0.0969,-0.0879,-0.0844,-0.0681,-0.0601,-0.0352,-0.0164,0.0022,0.0289,0.0281,0.0459,0.0508,0.0451,0.0449,0.0402,0.0394,0.0448,0.0447,0.0446,0.0445,0,-0.1038,-0.1045,-0.1108,-0.1116,-0.1122,-0.1152,-0.1124,-0.1116,-0.1019,-0.0965,-0.0929,-0.0701,-0.0446,-0.0181,0.0122,0.0282,0.0526,0.0618,0.0534,0.0571,0.0647,0.0634,0.0815,0.0818,0.0821,0.0823,0.0825,0,-0.1081,-0.1125,-0.1188,-0.1232,-0.1243,-0.127,-0.1278,-0.1204,-0.1182,-0.1018,-0.0989,-0.0731,-0.0523,-0.0046,0.028,0.0632,0.062,0.0777,0.0743,0.066,0.069,0.0672,0.0656,0.0748,0.0749,0.075,0.0751,0,-0.1162,-0.1188,-0.1243,-0.1335,-0.1379,-0.1422,-0.1419,-0.1419,-0.1313,-0.1227,-0.1049,-0.0865,-0.0396,0.0009,0.0459,0.0645,0.0716,0.0807,0.0769,0.0652,0.0609,0.0634,0.0618,0.0759,0.0758,0.0758,0.0757,0.0757,-0.1215,-0.1279,-0.1348,-0.1433,-0.1496,-0.1539,-0.1552,-0.1511,-0.1457,-0.1285,-0.1103,-0.0788,-0.0395,0.0262,0.0581,0.0858,0.0845,0.0904,0.0896,0.0889,0.0842,0.0805,0.0983,0.0984,0.0984,0.0984,0.0985,0,-0.1265,-0.1335,-0.1428,-0.1528,-0.1602,-0.1607,-0.1618,-0.1577,-0.1496,-0.1289,-0.1069,-0.0622,-0.015,0.0246,0.0709,0.0985,0.0941,0.1005,0.0902,0.0893,0.0885,0.0832,0.0975,0.0976,0.0976,0.0977,0,0,-0.1293,-0.139,-0.1442,-0.1584,-0.165,-0.1694,-0.1692,-0.1602,-0.1442,-0.1218,-0.0978,-0.0622,-0.013,0.0198,0.0548,0.0783,0.0757,0.0787,0.0765,0.0593,0.0582,0.0798,0.0704,0,0,0,0,0]}],[{"header":{"parameterUnit":"m.s-1","parameterCategory":2,"la1":30.2991,"la2":30.254,"lo1":-89.0895,"lo2":-89.0444,"dy":0.0017,"dx":0.0017,"nx":28,"ny":28,"refTime":"2024-05-11T21:00:00:Z","depth":"4","parameterNumber":2,"parameterNumberName":"U-component_of_CURRENTS"},"data":[0,0,0,0,0,0,0,0,0,0,0,0,0,0,0,0,0,0,0,0,0,0,0,0,0,0,0,0,0,0,0,0,0,0,0,0,0,0,0,0,0,0,0,0,0,0,0,0,0,0,0,0,0,0,0,0,0,0,-0.2187,-0.2188,0,-0.23,-0.2301,-0.2302,-0.2366,-0.2366,-0.2366,-0.2367,-0.2457,-0.2458,-0.246,0,0,0,0,0,0,0,0,0,0,0,0,0,-0.2046,-0.2048,-0.2187,-0.2188,-0.219,-0.23,-0.2301,-0.2303,-0.2366,-0.2366,-0.2367,-0.2367,-0.2456,-0.2458,-0.2461,0,0,0,0,0,0,0,0,0,0,0,0,0,-0.2126,-0.2049,-0.2186,-0.2236,-0.2242,-0.23,-0.2301,-0.2303,-0.2365,-0.2366,-0.2367,-0.2367,-0.2455,-0.2458,-0.2461,-0.2467,0,0,-0.247,-0.2471,0,0,0,0,0,0,0,0,-0.2121,-0.2131,-0.2227,-0.2233,-0.224,-0.2321,-0.2285,-0.2358,-0.2365,-0.2316,-0.2367,-0.2368,-0.241,-0.2417,-0.2434,-0.2471,-0.2475,-0.247,-0.2472,-0.2474,-0.2474,0,0,0,0,0,0,0,-0.2115,-0.2126,-0.2229,-0.2229,-0.2237,-0.2261,-0.2272,-0.2299,-0.2356,-0.232,-0.2326,-0.2342,-0.2413,-0.2431,-0.2436,-0.2477,-0.247,-0.2473,-0.2475,-0.2476,-0.2622,-0.2624,0,0,0,0,0,0,-0.2105,-0.2121,-0.2226,-0.2233,-0.2183,-0.2263,-0.2276,-0.2293,-0.2356,-0.2368,-0.2341,-0.2345,-0.2425,-0.2433,-0.244,-0.2545,-0.2474,-0.2476,-0.2478,-0.262,-0.2622,-0.2625,0,0,0,0,0,0,-0.2101,-0.2113,-0.2221,-0.2181,-0.2197,-0.2265,-0.2283,-0.2295,-0.2352,-0.2373,-0.2384,-0.2392,-0.2426,-0.2436,-0.25,-0.2545,-0.2478,-0.248,-0.2617,-0.2621,-0.2624,-0.2695,0,0,0,0,0,0,-0.2097,-0.2111,-0.2138,-0.218,-0.2199,-0.228,-0.2283,-0.2296,-0.236,-0.2366,-0.2419,-0.2426,-0.2427,-0.2496,-0.2503,-0.2548,-0.2483,-0.2615,-0.2619,-0.2623,-0.269,-0.2701,-0.2709,0,0,0,0,0,-0.2091,-0.2118,-0.2139,-0.2153,-0.2228,-0.2281,-0.2294,-0.2341,-0.2362,-0.2394,-0.2434,-0.2426,-0.2526,-0.25,-0.2508,-0.2555,-0.2613,-0.2618,-0.2622,-0.2686,-0.2699,-0.2709,0,0,0,0,0,0,-0.2075,-0.2129,-0.2152,-0.2196,-0.2248,-0.2294,-0.2334,-0.2365,-0.2423,-0.2441,-0.2454,-0.2464,-0.2536,-0.2538,-0.2509,-0.2609,-0.2568,-0.2574,-0.2614,-0.2625,-0.2635,-0.2619,-0.2485,0,0,0,0,0,-0.2082,-0.2119,-0.2171,-0.2213,-0.224,-0.2296,-0.2332,-0.2367,-0.2415,-0.2444,-0.2481,-0.252,-0.2556,-0.2585,-0.2613,-0.2671,-0.2643,-0.2706,-0.2716,-0.2724,-0.2717,-0.2718,-0.2726,-0.264,-0.264,-0.264,0,0,-0.2088,-0.2124,-0.2147,-0.2213,-0.2257,-0.231,-0.232,-0.2388,-0.2441,-0.2442,-0.2534,-0.2558,-0.2578,-0.2642,-0.2674,-0.2654,-0.2735,-0.273,-0.2736,-0.2725,-0.2724,-0.2732,-0.2739,-0.2643,-0.2643,-0.2642,0,0,-0.2109,-0.2152,-0.219,-0.2237,-0.2314,-0.2348,-0.2376,-0.2448,-0.2493,-0.2574,-0.2586,-0.2635,-0.2705,-0.272,-0.2735,-0.2814,-0.2784,-0.2838,-0.2878,-0.2879,-0.2886,-0.2891,-0.2866,-0.2868,-0.2844,-0.2845,-0.2845,0,-0.2119,-0.2168,-0.2211,-0.2263,-0.2309,-0.2369,-0.2424,-0.2478,-0.2566,-0.2601,-0.2616,-0.2715,-0.2735,-0.2793,-0.2823,-0.2834,-0.2822,-0.2832,-0.2889,-0.2894,-0.2898,-0.2871,-0.2872,-0.2849,-0.2848,-0.2848,-0.2847,0,-0.2158,-0.2216,-0.2245,-0.2326,-0.2384,-0.2442,-0.2516,-0.2583,-0.2644,-0.2688,-0.2775,-0.2805,-0.2854,-0.2879,-0.2878,-0.2929,-0.2907,-0.2898,-0.2854,-0.2911,-0.2879,-0.2879,-0.2854,-0.2853,-0.2852,-0.2851,0,0,-0.2121,-0.2246,-0.226,-0.231,-0.2423,-0.2467,-0.2566,-0.2651,-0.2711,-0.2794,-0.2859,-0.2926,-0.294,-0.2957,-0.2968,-0.2977,-0.2997,-0.2959,-0.2958,-0.2923,-0.2988,-0.2792,-0.2773,-0.3006,-0.3006,-0.3007,-0.2953,0,-0.2139,-0.2234,-0.2299,-0.2399,-0.2452,-0.2541,-0.2621,-0.2712,-0.2788,-0.2865,-0.2906,-0.2971,-0.2972,-0.3002,-0.3015,-0.3006,-0.3003,-0.3011,-0.2948,-0.2946,-0.2755,-0.2768,-0.3009,-0.2953,-0.2953,-0.2953,-0.2953,0,-0.2141,-0.2209,-0.2306,-0.2431,-0.2463,-0.254,-0.2667,-0.2745,-0.2858,-0.2916,-0.2985,-0.3021,-0.3064,-0.305,-0.3051,-0.3062,-0.3029,-0.301,-0.3008,-0.2794,-0.2749,-0.2887,-0.2953,-0.2953,-0.2953,-0.2953,-0.2953,0,-0.2067,-0.2205,-0.228,-0.2327,-0.248,-0.2549,-0.2634,-0.2763,-0.2827,-0.2945,-0.2996,-0.3057,-0.3086,-0.3076,-0.3047,-0.3059,-0.302,-0.3025,-0.2811,-0.2797,-0.2959,-0.2954,-0.3003,-0.3003,-0.3004,-0.3004,-0.3004,0,-0.2029,-0.2094,-0.226,-0.23,-0.2393,-0.2519,-0.2621,-0.2714,-0.2842,-0.2886,-0.3008,-0.3032,-0.3097,-0.3088,-0.3055,-0.2915,-0.3021,-0.2799,-0.2764,-0.2992,-0.2991,-0.2959,-0.2954,-0.3002,-0.3002,-0.3003,-0.3003,0,-0.1926,-0.2037,-0.2129,-0.2303,-0.236,-0.2425,-0.2601,-0.2651,-0.2802,-0.2863,-0.29,-0.3019,-0.2994,-0.3017,-0.2985,-0.2888,-0.2799,-0.2722,-0.2947,-0.2929,-0.2576,-0.2577,-0.2474,-0.2466,-0.246,-0.2455,-0.245,0,-0.1876,-0.1915,-0.21,-0.2144,-0.2228,-0.235,-0.2412,-0.2599,-0.2641,-0.281,-0.2798,-0.2865,-0.2902,-0.2696,-0.2754,-0.2656,-0.2626,-0.2566,-0.2581,-0.2542,-0.252,-0.2531,-0.254,-0.244,-0.2439,-0.2437,-0.2435,0,-0.1767,-0.1849,-0.1916,-0.2016,-0.2098,-0.218,-0.2289,-0.2314,-0.2484,-0.2643,-0.2613,-0.2603,-0.2569,-0.2542,-0.2481,-0.242,-0.2602,-0.25,-0.2513,-0.2527,-0.25,-0.2487,-0.2503,-0.2413,-0.2416,-0.2418,-0.242,0,-0.1671,-0.1688,-0.1784,-0.1849,-0.1943,-0.1975,-0.2069,-0.2107,-0.2186,-0.2374,-0.2344,-0.2419,-0.2521,-0.2416,-0.2361,-0.2283,-0.2253,-0.2179,-0.2209,-0.2234,-0.2181,-0.2114,-0.1857,0,0,0,0,0,-0.1565,-0.156,-0.1605,-0.1669,-0.1754,-0.1812,-0.1955,-0.2049,-0.2218,-0.2118,-0.2232,-0.2185,-0.2131,-0.2184,-0.2049,-0.2255,-0.2266,-0.2091,-0.2199,-0.2291,-0.2316,-0.2277,0,0,0,0,0,0,-0.1487,-0.1522,-0.1542,-0.1502,-0.1502,-0.158,-0.1665,-0.1786,-0.1755,-0.1927,-0.1904,-0.2026,-0.2003,-0.2146,-0.199,-0.2001,-0.2019,-0.2146,-0.2139,-0.2276,-0.2299,-0.232,-0.2288,0,0,0,0,0]},{"header":{"parameterUnit":"m.s-1","parameterCategory":2,"la1":30.2991,"la2":30.254,"lo1":-89.0895,"lo2":-89.0444,"dy":0.0017,"dx":0.0017,"nx":28,"ny":28,"refTime":"2024-05-11T21:00:00:Z","depth":"4","parameterNumber":3,"parameterNumberName":"V-component_of_CURRENTS"},"data":[0,0,0,0,0,0,0,0,0,0,0,0,0,0,0,0,0,0,0,0,0,0,0,0,0,0,0,0,0,0,0,0,0,0,0,0,0,0,0,0,0,0,0,0,0,0,0,0,0,0,0,0,0,0,0,0,0,0,-0.0201,-0.02,0,-0.0147,-0.0146,-0.0146,-0.01,-0.01,-0.0099,-0.0099,0.0005,0.0008,0.001,0,0,0,0,0,0,0,0,0,0,0,0,0,-0.0225,-0.0225,-0.0201,-0.02,-0.0199,-0.0147,-0.0146,-0.0145,-0.01,-0.01,-0.0099,-0.0099,0.0005,0.0007,0.001,0,0,0,0,0,0,0,0,0,0,0,0,0,-0.0196,-0.0225,-0.0201,-0.0172,-0.0169,-0.0147,-0.0146,-0.0145,-0.01,-0.01,-0.0099,-0.0099,0.0004,0.0007,0.0011,0.0022,0,0,0.0022,0.0023,0,0,0,0,0,0,0,0,-0.0198,-0.0195,-0.0176,-0.0174,-0.017,-0.0131,-0.0117,-0.0087,-0.01,-0.0125,-0.0099,-0.0098,-0.0037,-0.003,-0.002,0.0027,0.0031,0.0022,0.0024,0.0026,0.0027,0,0,0,0,0,0,0,-0.02,-0.0197,-0.0178,-0.0176,-0.0172,-0.0148,-0.0143,-0.0111,-0.0083,-0.0123,-0.012,-0.0116,-0.0034,-0.0024,-0.0017,0.0033,0.0022,0.0025,0.0027,0.0029,0.0107,0.0107,0,0,0,0,0,0,-0.0212,-0.0199,-0.018,-0.0177,-0.0184,-0.0148,-0.0143,-0.0143,-0.0084,-0.0075,-0.0116,-0.0114,-0.003,-0.0021,-0.0013,0.0013,0.0026,0.0029,0.0031,0.0107,0.0107,0.0107,0,0,0,0,0,0,-0.0213,-0.0211,-0.0182,-0.0187,-0.0182,-0.0149,-0.0149,-0.0142,-0.0131,-0.008,-0.007,-0.0113,-0.0029,-0.0018,0.0016,0.0017,0.0031,0.0034,0.0107,0.0107,0.0107,0.006,0,0,0,0,0,0,-0.0214,-0.0211,-0.0219,-0.0188,-0.0182,-0.0176,-0.0149,-0.0142,-0.0131,-0.0127,-0.0073,-0.0063,-0.0028,0.001,0.0019,0.0023,0.0037,0.0107,0.0107,0.0107,0.0062,0.0058,0.0056,0,0,0,0,0,-0.0215,-0.023,-0.022,-0.0218,-0.0193,-0.0177,-0.0172,-0.0144,-0.0131,-0.0132,-0.0092,-0.0065,0.0016,0.0013,0.0024,0.0028,0.0108,0.0107,0.0107,0.0063,0.0059,0.0056,0,0,0,0,0,0,-0.0246,-0.0226,-0.0215,-0.0224,-0.0204,-0.017,-0.0172,-0.015,-0.0121,-0.0117,-0.0065,-0.0052,-0.0026,0.0007,0.0003,0.005,0.0066,0.0067,0.0028,0.0025,0.0022,0.0015,0.004,0,0,0,0,0,-0.0257,-0.0264,-0.0237,-0.0245,-0.0239,-0.0206,-0.0198,-0.0178,-0.0147,-0.0134,-0.0096,-0.0054,-0.0019,0.0007,0.0037,0.0067,0.011,0.0077,0.0073,0.007,0.0072,0.0141,0.0145,0.0106,0.0106,0.0106,0,0,-0.0273,-0.0263,-0.0268,-0.0252,-0.0237,-0.0233,-0.02,-0.0193,-0.0183,-0.0127,-0.0106,-0.007,-0.0017,0.0013,0.0029,0.0044,0.0102,0.007,0.0067,0.0071,0.0141,0.0145,0.0149,0.0106,0.0106,0.0106,0,0,-0.031,-0.0299,-0.0317,-0.0304,-0.0286,-0.0261,-0.0261,-0.0229,-0.0209,-0.0184,-0.0142,-0.0098,-0.0052,-0.0003,0.0026,0.0026,0.0074,0.0027,0.0018,0.0085,0.0089,0.0093,0.0144,0.0153,0.0036,0.0036,0.0036,0,-0.0331,-0.0347,-0.0319,-0.0329,-0.0324,-0.0277,-0.0289,-0.026,-0.0219,-0.02,-0.0186,-0.0101,-0.0055,0.0001,0.0002,0.0021,0.0056,0.0028,0.0082,0.0087,0.0092,0.0143,0.0153,0.0034,0.0034,0.0034,0.0034,0,-0.0375,-0.0388,-0.0398,-0.0392,-0.0379,-0.0384,-0.034,-0.0322,-0.0291,-0.0254,-0.0204,-0.0135,-0.0081,-0.0058,-0.0025,0.0031,0.0042,0.0061,0.0091,0.0093,0.0146,0.0158,0.003,0.0031,0.0032,0.0032,0,0,-0.0424,-0.0431,-0.0435,-0.0448,-0.0415,-0.0413,-0.0391,-0.0357,-0.0345,-0.0284,-0.0254,-0.0174,-0.0132,-0.0096,-0.0042,0.0027,0.0095,0.0055,0.0059,0.0103,0.023,0.0204,0.0215,0.0121,0.0123,0.0124,0.025,0,-0.047,-0.0513,-0.0493,-0.0523,-0.0539,-0.0488,-0.0473,-0.0429,-0.0382,-0.0341,-0.0243,-0.0201,-0.0146,-0.0122,-0.0043,0.0054,0.0125,0.0059,0.0223,0.0228,0.0204,0.0228,0.013,0.0259,0.0262,0.0264,0.0265,0,-0.0517,-0.0541,-0.0587,-0.0595,-0.0596,-0.0601,-0.057,-0.0551,-0.0466,-0.0428,-0.0349,-0.0276,-0.0166,-0.0126,0.0063,0.0014,0.0116,0.02,0.0207,0.0209,0.0225,0.026,0.0287,0.0286,0.0284,0.0283,0.0281,0,-0.0569,-0.0603,-0.0647,-0.0651,-0.0648,-0.0656,-0.0646,-0.0582,-0.0568,-0.0483,-0.0455,-0.0318,-0.0249,-0.01,0.0078,0.0069,0.0283,0.0296,0.0375,0.0374,0.038,0.0375,0.0434,0.0434,0.0434,0.0434,0.0433,0,-0.0616,-0.0653,-0.0685,-0.071,-0.0762,-0.0726,-0.0752,-0.0717,-0.0659,-0.064,-0.0511,-0.0454,-0.0239,-0.0089,0.0067,0.0255,0.0281,0.0379,0.041,0.0355,0.0345,0.0388,0.0381,0.0438,0.0437,0.0436,0.0436,0,-0.0657,-0.0679,-0.0743,-0.0775,-0.0793,-0.0829,-0.0839,-0.0842,-0.0781,-0.0749,-0.0724,-0.0545,-0.0349,-0.0131,0.0122,0.0231,0.0417,0.0479,0.0398,0.0421,0.0465,0.0454,0.0573,0.0574,0.0574,0.0574,0.0574,0,-0.0678,-0.0718,-0.0806,-0.0855,-0.0879,-0.0926,-0.0949,-0.0914,-0.0905,-0.0801,-0.0779,-0.0589,-0.0452,-0.0099,0.0115,0.0409,0.0449,0.0531,0.0508,0.0464,0.0482,0.0471,0.046,0.0575,0.0575,0.0575,0.0575,0,-0.0718,-0.0761,-0.0815,-0.0919,-0.0978,-0.1036,-0.1061,-0.1059,-0.0999,-0.0958,-0.0801,-0.0605,-0.038,-0.0104,0.0128,0.0336,0.0467,0.0534,0.0535,0.0514,0.0467,0.0482,0.0471,0.0576,0.0575,0.0575,0.0575,0,-0.0748,-0.0802,-0.088,-0.0966,-0.1054,-0.1102,-0.1114,-0.1072,-0.1048,-0.0918,-0.0872,-0.0611,-0.0456,-0.0141,0.0069,0.0272,0.0317,0.0365,0.0375,0.0377,0.0277,0.0185,0.0241,0,0,0,0,0,-0.0761,-0.082,-0.091,-0.1006,-0.1094,-0.1133,-0.1163,-0.115,-0.11,-0.0996,-0.0925,-0.0708,-0.0366,-0.0207,-0.0005,0.0052,0.0331,0.029,0.0385,0.058,0.0579,0.0492,0,0,0,0,0,0,-0.0771,-0.0858,-0.0907,-0.1016,-0.108,-0.1159,-0.1176,-0.1143,-0.1064,-0.0986,-0.079,-0.0688,-0.0344,-0.0478,-0.0009,0.0052,0.0132,0.0455,0.0459,0.058,0.058,0.0579,0.0489,0,0,0,0,0]}]]